Regional Weather Roundup
Issued by NWS Melbourne, FL

Current Version | Previous Version | Text Only | Print | Product List | Glossary On
Versions: 1 2 3 4 5 6 7 8 9 10 11 12 13 14 15 16 17 18 19 20 21 22 23 24 25 26 27 28 29 30 31 32 33 34 35 36 37 38 39 40 41 42 43 44 45 46 47 48 49 50
000
ASUS42 KMLB 162312
RWRMLB
HOURLY WEATHER ROUNDUP AROUND FLORIDA
NATIONAL WEATHER SERVICE OFFICE MELBOURNE FL
700 PM EDT TUE OCT 16 2018

CITY           SKY/WX    TMP DP  RH WIND       PRES   REMARKS
MELBOURNE      FAIR      84  74  71 SE9       30.08R
FORT PIERCE    FAIR      82  74  76 E9        30.07R
ORLANDO INTL   FAIR      84  71  65 E12       30.07R
DAYTONA BEACH  FAIR      82  76  81 VRB3      30.07S
VERO BEACH     FAIR      82  74  76 E8        30.08R
$$
...ELSEWHERE ACROSS CENTRAL FLORIDA...

CITY           SKY/WX    TMP DP  RH WIND       PRES   REMARKS
PATRICK AFB    FAIR      83  76  79 SE10      30.08R
KSC            FAIR      82  74  78 SE5       30.08R
CAPE CANAVERAL FAIR      82  74  77 SE9       30.07R
TITUSVILLE     CLEAR     84  73  70 CALM      30.09R
ORLANDO EXEC   FAIR      85  72  65 SE13      30.07R
LEESBURG       FAIR      86  74  67 E3        30.06R
SANFORD        FAIR      84  73  69 SE10      30.07R
DELAND         FAIR      84  72  65 SE9       30.06S
NEW SMYRNA BCH CLEAR     82  73  74 SE12      30.09R
ORMOND BEACH   CLEAR     82  75  78 SE9       30.07S
WINTER HAVEN   FAIR      88  71  57 E9        30.07R
KISSIMMEE      FAIR      86  73  65 E9        30.07R
OKEECHOBEE     FAIR      81  72  74 E5        30.06R
TAMPA          FAIR      90  68  48 SE6       30.04R
$$
...NORTHERN FLORIDA...

CITY           SKY/WX    TMP DP  RH WIND       PRES   REMARKS
PALM COAST     CLEAR     81  73  78 SE12      30.07S
ST AUGUSTINE   MOCLDY    81  76  84 SE10      30.09R
OCALA          FAIR      86  71  60 CALM      30.05S
GAINESVILLE    MOCLDY    87  72  60 CALM      30.08R
JACKSONVILLE   FAIR      82  74  76 SE10      30.07R
TALLAHASSEE    CLEAR     83  77  82 S8        30.06R
$$
...ALONG THE SOUTHEAST COAST TO THE KEYS...

CITY           SKY/WX    TMP DP  RH WIND       PRES   REMARKS
STUART         PTCLDY    82  73  74 E9        30.08
WEST PALM BCH  FAIR      83  76  79 E12       30.06R
MIAMI          FAIR      83  75  77 E16       30.04R
KEY WEST       FAIR      85  75  72 E16       30.00R
$$
...MARINE REPORTS...

STATION/POSITION TIME  TEMP    WIND        PRES    WAVE   SWELL
                       AIR SEA DIR/SP/G            HT/PER HT/PER
                 (UTC) (F)     (DEG/KT/KT) (MB)    (FT/S) (FT/S)
ST AUGUSTINE FP  2300   82 85  130/ 12/ 13 1019.0R
20NM E CAPE CANA 2250   83     130/ 12/ 14 1019.0R   3/ 7   2/ 7
TRIDENT PIER     2242   82 85  120/  7/  9 1020.0R
SEBASTIAN INLET  2245   82 83  120/ 10     1019.0S
4NM E PORT CANAV 2300      83                N/A     2/ 3
6NM NE FPR INLET 2300      83                N/A     3/ 5
SETTLEMENT PT GB 2300   83     100/ 10/ 12 1018.3R
$$



USA.gov is the U.S. government's official web portal to all federal, state and local government web resources and services.